Location: Prairie Dale
(45.6972°N, 104.5033°W)
Time: 15:41:15
(UTC+00:00)

ESTCUBE 1 - Pass Details

Date: 04 July 2022
Orbit: 646 x 657 km, 97.9° (Epoch: 07 August)

Event Time Altitude Azimuth Distance (km) Brightness Sun altitude
Exits shadow 03:23:08 - 103° (ESE) 2,653 ? -5.3°
Reaches altitude 10° 03:25:55 10° 76° (ENE) 2,053 ? -5.7°
Maximum altitude 03:27:17 11° 58° (ENE) 1,969 ? -5.8°
Drops below altitude 10° 03:28:39 10° 40° (NE) 2,059 ? -6.0°
Sets 03:32:26 0° 7° (N) 2,978 ? -6.5°
